{"data":{"norad_id":67570,"epoch":"2026-09-19T09:34:59.075904Z","epoch_age_seconds":167367,"freshness":"FRESH","line1":"1 67570U 26016K   26262.39929486  .00013036  00000+0  40532-3 0  9997","line2":"2 67570  97.2851 321.1063 0000622  92.4740 267.6574 15.33452958 36552","mean_motion":15.33452958,"eccentricity":6.22e-5,"inclination_deg":97.2851,"raan_deg":321.1063,"arg_perigee_deg":92.474,"mean_anomaly_deg":267.6574,"bstar":0.00040532,"rev_number":3655,"period_min":93.905717321653,"perigee_km":465.09382173733,"apogee_km":465.94517260558,"semimajor_km":6843.6564971715,"source":"CELESTRAK","updated_at":"2026-09-20T09:00:43.575738Z"}}